QPF
0.04 0.05 0.06 0.07 0.07 0.07 0.07 0.07 0.05 0.03 0.02 0.03 0.03 0.04 0.04 0.04 0.04 0.05 0.05 0.04 0.04 0.05 0.04 0.05 0.05 0.06 0.05 0.06 0.07 0.07 0.05 0.03 0.02 0.02 0.02 0.02 0.02 0.02 0.02 0.01 0.01 0.01 0.02
0.04 0.05 0.05 0.06 0.07 0.07 0.07 0.07 0.06 0.04 0.03 0.02 0.02 0.02 0.02 0.02 0.02 0.03 0.03 0.03 0.03 0.02 0.02 0.03 0.03 0.05 0.05 0.05 0.05 0.06 0.05 0.03 0.01 0.02 0.03 0.03 0.03 0.03 0.03 0.02 0.02 0.02 0.01
0.04 0.04 0.05 0.05 0.07 0.07 0.06 0.06 0.07 0.05 0.04 0.02 0.02 0.02 0.02 0.01 0.02 0.02 0.02 0.02 0.02 0.02 0.01 0.01 0.02 0.03 0.04 0.04 0.04 0.05 0.05 0.04 0.02 0.02 0.04 0.05 0.04 0.03 0.03 0.03 0.03 0.03 0.02
0.05 0.04 0.04 0.05 0.05 0.06 0.05 0.05 0.05 0.05 0.05 0.04 0.03 0.01 0.01 0.01 0.01 0.01 0.01 0.01 0.02 0.02 0.01 0.01 0.02 0.02 0.03 0.02 0.02 0.02 0.03 0.04 0.04 0.03 0.03 0.04 0.05 0.04 0.04 0.03 0.03 0.03 0.03
0.04 0.05 0.05 0.04 0.04 0.05 0.04 0.03 0.04 0.04 0.04 0.03 0.03 0.03 0.02 0.02 0.01 0.01 0.01 0.01 0.01 0.02 0.02 0.02 0.02 0.03 0.02 0.02 0.01 0.01 0.01 0.03 0.03 0.02 0.02 0.03 0.02 0.02 0.03 0.04 0.05 0.05 0.03
0.02 0.03 0.05 0.05 0.05 0.04 0.04 0.04 0.03 0.03 0.03 0.03 0.03 0.03 0.02 0.02 0.02 0.02 0.01 0.01 0.02 0.02 0.01 0.02 0.02 0.03 0.04 0.03 0.01 0.01 0.01 0.01 0.02 0.02 0.02 0.02 0.03 0.02 0.02 0.03 0.04 0.06 0.06
0.00 0.01 0.02 0.03 0.04 0.03 0.03 0.03 0.03 0.03 0.03 0.03 0.03 0.02 0.02 0.01 0.01 0.01 0.02 0.02 0.02 0.02 0.01 0.01 0.01 0.01 0.02 0.03 0.03 0.02 0.01 0.01 0.01 0.01 0.01 0.02 0.02 0.02 0.03 0.03 0.03 0.03 0.05
0.00 0.00 0.01 0.02 0.03 0.03 0.02 0.02 0.02 0.02 0.02 0.03 0.03 0.02 0.01 0.02 0.02 0.01 0.01 0.01 0.02 0.01 0.01 0.01 0.01 0.01 0.01 0.01 0.01 0.02 0.02 0.01 0.01 0.01 0.01 0.01 0.01 0.01 0.02 0.02 0.02 0.03 0.03
0.00 0.00 0.01 0.01 0.01 0.02 0.02 0.02 0.01 0.01 0.01 0.02 0.02 0.02 0.02 0.02 0.02 0.01 0.01 0.01 0.01 0.02 0.02 0.01 0.01 0.01 0.01 0.01 0.01 0.01 0.01 0.01 0.01 0.01 0.01 0.01 0.01 0.02 0.01 0.01 0.02 0.02 0.02
0.00 0.00 0.01 0.01 0.01 0.01 0.02 0.01 0.01 0.01 0.01 0.01 0.01 0.02 0.02 0.01 0.01 0.01 0.01 0.01 0.01 0.01 0.02 0.02 0.01 0.01 0.01 0.01 0.01 0.01 0.01 0.01 0.01 0.01 0.01 0.01 0.01 0.01 0.02 0.02 0.01 0.01 0.01
0.02 0.01 0.01 0.02 0.02 0.02 0.02 0.02 0.01 0.01 0.01 0.01 0.01 0.01 0.01 0.02 0.02 0.01 0.01 0.01 0.01 0.01 0.01 0.01 0.01 0.01 0.01 0.01 0.01 0.01 0.01 0.02 0.02 0.01 0.01 0.01 0.01 0.02 0.02 0.02 0.02 0.02 0.02
0.03 0.02 0.02 0.02 0.03 0.03 0.02 0.02 0.02 0.01 0.01 0.01 0.01 0.01 0.01 0.01 0.02 0.02 0.01 0.02 0.02 0.02 0.02 0.01 0.01 0.01 0.01 0.01 0.01 0.01 0.01 0.01 0.01 0.02 0.02 0.01 0.01 0.02 0.02 0.02 0.02 0.02 0.02
0.03 0.03 0.03 0.03 0.03 0.03 0.03 0.03 0.03 0.02 0.02 0.02 0.01 0.01 0.01 0.01 0.01 0.03 0.03 0.03 0.02 0.02 0.02 0.02 0.01 0.01 0.01 0.01 0.02 0.02 0.02 0.01 0.01 0.01 0.01 0.02 0.02 0.02 0.02 0.02 0.02 0.02 0.02
0.03 0.03 0.03 0.04 0.04 0.03 0.04 0.04 0.03 0.03 0.03 0.03 0.02 0.01 0.01 0.01 0.01 0.01 0.03 0.03 0.02 0.02 0.01 0.01 0.01 0.01 0.01 0.01 0.01 0.01 0.02 0.02 0.02 0.02 0.02 0.02 0.02 0.02 0.02 0.02 0.02 0.02 0.02
0.03 0.03 0.03 0.03 0.03 0.03 0.04 0.04 0.04 0.04 0.03 0.03 0.03 0.02 0.02 0.01 0.01 0.01 0.01 0.03 0.03 0.02 0.02 0.01 0.01 0.01 0.01 0.01 0.01 0.02 0.02 0.02 0.03 0.03 0.03 0.02 0.02 0.02 0.02 0.02 0.02 0.02 0.02
0.03 0.03 0.03 0.03 0.03 0.02 0.03 0.03 0.04 0.04 0.04 0.03 0.03 0.03 0.02 0.02 0.01 0.01 0.01 0.01 0.03 0.03 0.02 0.01 0.01 0.00 0.00 0.01 0.01 0.01 0.02 0.02 0.02 0.02 0.02 0.03 0.03 0.02 0.02 0.02 0.02 0.01 0.01
0.03 0.03 0.03 0.03 0.03 0.02 0.02 0.02 0.03 0.04 0.04 0.03 0.03 0.02 0.02 0.02 0.01 0.01 0.01 0.01 0.02 0.03 0.02 0.01 0.01 0.01 0.00 0.01 0.01 0.01 0.01 0.02 0.02 0.02 0.02 0.02 0.02 0.02 0.02 0.02 0.02 0.02 0.02
0.03 0.03 0.03 0.03 0.03 0.02 0.01 0.01 0.02 0.03 0.03 0.03 0.02 0.02 0.02 0.01 0.01 0.01 0.01 0.01 0.01 0.01 0.02 0.01 0.01 0.01 0.01 0.01 0.01 0.01 0.01 0.01 0.01 0.02 0.02 0.01 0.01 0.02 0.02 0.02 0.02 0.02 0.02
0.03 0.03 0.04 0.03 0.03 0.03 0.02 0.01 0.02 0.02 0.03 0.03 0.02 0.02 0.02 0.02 0.01 0.02 0.02 0.01 0.01 0.01 0.01 0.01 0.01 0.01 0.01 0.01 0.01 0.01 0.01 0.01 0.01 0.01 0.01 0.01 0.01 0.01 0.01 0.01 0.01 0.02 0.02
0.03 0.03 0.05 0.04 0.03 0.02 0.02 0.02 0.02 0.02 0.02 0.03 0.02 0.02 0.03 0.03 0.02 0.02 0.02 0.01 0.01 0.01 0.01 0.01 0.01 0.01 0.01 0.01 0.01 0.01 0.01 0.01 0.01 0.01 0.01 0.01 0.01 0.01 0.01 0.01 0.01 0.01 0.01
0.02 0.02 0.04 0.05 0.03 0.03 0.03 0.02 0.02 0.02 0.03 0.03 0.02 0.02 0.02 0.03 0.03 0.02 0.02 0.02 0.01 0.01 0.01 0.01 0.01 0.01 0.01 0.01 0.01 0.01 0.01 0.01 0.01 0.01 0.01 0.01 0.01 0.01 0.01 0.01 0.01 0.01 0.01
0.03 0.02 0.04 0.05 0.03 0.03 0.04 0.03 0.02 0.02 0.03 0.04 0.03 0.02 0.01 0.02 0.03 0.03 0.03 0.03 0.03 0.02 0.02 0.02 0.02 0.01 0.01 0.01 0.01 0.01 0.02 0.01 0.01 0.01 0.01 0.01 0.01 0.01 0.01 0.01 0.01 0.01 0.01
0.03 0.02 0.03 0.04 0.03 0.02 0.04 0.04 0.03 0.03 0.03 0.04 0.04 0.02 0.02 0.01 0.02 0.03 0.04 0.04 0.04 0.03 0.02 0.02 0.02 0.02 0.02 0.01 0.01 0.01 0.01 0.02 0.01 0.01 0.01 0.01 0.02 0.02 0.01 0.01 0.01 0.01 0.01
0.04 0.03 0.03 0.03 0.03 0.02 0.03 0.03 0.03 0.03 0.03 0.03 0.04 0.03 0.02 0.02 0.02 0.02 0.03 0.04 0.04 0.03 0.03 0.03 0.02 0.02 0.02 0.02 0.01 0.01 0.01 0.01 0.01 0.02 0.02 0.02 0.02 0.02 0.01 0.02 0.02 0.01 0.01
0.03 0.03 0.03 0.03 0.03 0.03 0.03 0.03 0.03 0.03 0.03 0.03 0.03 0.03 0.03 0.03 0.02 0.02 0.03 0.03 0.03 0.04 0.03 0.03 0.03 0.02 0.02 0.02 0.02 0.01 0.01 0.01 0.01 0.01 0.01 0.01 0.01 0.01 0.01 0.01 0.01 0.01 0.01
0.03 0.03 0.03 0.03 0.04 0.03 0.03 0.03 0.03 0.03 0.03 0.03 0.03 0.03 0.03 0.03 0.03 0.03 0.03 0.04 0.03 0.03 0.03 0.03 0.03 0.03 0.03 0.03 0.02 0.02 0.01 0.01 0.01 0.01 0.01 0.01 0.01 0.01 0.01 0.01 0.01 0.01 0.01
MSLP
1005.48 1005.65 1005.93 1006.30 1006.73 1007.21 1007.72 1008.27 1008.86 1009.49 1010.16 1010.89 1011.64 1012.41 1013.16 1013.89 1014.57 1015.20 1015.79 1016.36 1016.92 1017.52 1018.15 1018.82 1019.54 1020.28 1021.03 1021.76 1022.46 1023.12 1023.74 1024.32 1024.88 1025.42 1025.94 1026.44 1026.91 1027.32 1027.66 1027.93 1028.11 1028.22 1028.29
1005.00 1005.05 1005.28 1005.65 1006.14 1006.73 1007.36 1008.03 1008.72 1009.41 1010.12 1010.84 1011.56 1012.28 1012.99 1013.68 1014.35 1014.99 1015.60 1016.20 1016.79 1017.40 1018.03 1018.70 1019.39 1020.10 1020.82 1021.53 1022.23 1022.89 1023.53 1024.15 1024.74 1025.32 1025.88 1026.42 1026.93 1027.39 1027.78 1028.10 1028.34 1028.51 1028.61
1004.99 1004.85 1004.93 1005.22 1005.69 1006.30 1006.99 1007.72 1008.47 1009.20 1009.92 1010.61 1011.30 1011.99 1012.67 1013.35 1014.01 1014.67 1015.31 1015.94 1016.56 1017.18 1017.81 1018.45 1019.11 1019.79 1020.48 1021.16 1021.85 1022.51 1023.16 1023.80 1024.41 1025.01 1025.60 1026.16 1026.69 1027.18 1027.62 1028.00 1028.31 1028.55 1028.73
1005.64 1005.23 1005.09 1005.21 1005.57 1006.11 1006.76 1007.48 1008.21 1008.92 1009.61 1010.27 1010.92 1011.57 1012.23 1012.90 1013.58 1014.27 1014.94 1015.60 1016.24 1016.86 1017.48 1018.09 1018.72 1019.36 1020.01 1020.68 1021.35 1022.02 1022.68 1023.32 1023.94 1024.54 1025.12 1025.68 1026.21 1026.72 1027.19 1027.62 1028.01 1028.33 1028.61
1006.97 1006.28 1005.87 1005.76 1005.92 1006.30 1006.83 1007.44 1008.07 1008.70 1009.31 1009.90 1010.49 1011.10 1011.73 1012.41 1013.11 1013.82 1014.52 1015.20 1015.86 1016.47 1017.07 1017.65 1018.24 1018.84 1019.47 1020.13 1020.80 1021.47 1022.14 1022.78 1023.40 1023.98 1024.53 1025.06 1025.57 1026.06 1026.55 1027.01 1027.46 1027.88 1028.26
1008.89 1007.94 1007.27 1006.90 1006.82 1006.97 1007.30 1007.72 1008.18 1008.65 1009.12 1009.60 1010.10 1010.65 1011.26 1011.92 1012.64 1013.37 1014.10 1014.79 1015.44 1016.04 1016.61 1017.15 1017.70 1018.28 1018.89 1019.54 1020.22 1020.91 1021.59 1022.24 1022.84 1023.39 1023.90 1024.37 1024.83 1025.29 1025.76 1026.25 1026.75 1027.25 1027.74
1011.20 1010.05 1009.15 1008.55 1008.22 1008.13 1008.20 1008.37 1008.60 1008.86 1009.14 1009.46 1009.84 1010.30 1010.86 1011.51 1012.21 1012.96 1013.69 1014.38 1015.01 1015.59 1016.12 1016.62 1017.14 1017.69 1018.29 1018.94 1019.64 1020.35 1021.05 1021.70 1022.29 1022.80 1023.26 1023.67 1024.06 1024.47 1024.92 1025.41 1025.95 1026.53 1027.11
1013.61 1012.35 1011.31 1010.53 1010.00 1009.66 1009.48 1009.39 1009.35 1009.36 1009.41 1009.53 1009.76 1010.11 1010.59 1011.19 1011.87 1012.59 1013.31 1013.98 1014.58 1015.12 1015.60 1016.07 1016.55 1017.08 1017.68 1018.34 1019.06 1019.80 1020.52 1021.18 1021.76 1022.24 1022.65 1023.00 1023.33 1023.69 1024.10 1024.59 1025.16 1025.80 1026.48
1015.82 1014.55 1013.48 1012.61 1011.93 1011.42 1011.01 1010.66 1010.36 1010.11 1009.92 1009.83 1009.88 1010.09 1010.46 1010.98 1011.60 1012.28 1012.96 1013.59 1014.15 1014.64 1015.08 1015.50 1015.95 1016.46 1017.06 1017.73 1018.47 1019.24 1019.98 1020.65 1021.23 1021.69 1022.07 1022.37 1022.66 1022.97 1023.36 1023.85 1024.44 1025.13 1025.88
1017.61 1016.44 1015.42 1014.56 1013.83 1013.20 1012.62 1012.07 1011.54 1011.04 1010.62 1010.32 1010.18 1010.22 1010.46 1010.88 1011.41 1012.02 1012.63 1013.20 1013.70 1014.14 1014.53 1014.92 1015.34 1015.84 1016.43 1017.11 1017.87 1018.65 1019.41 1020.09 1020.68 1021.14 1021.50 1021.79 1022.06 1022.35 1022.73 1023.23 1023.84 1024.58 1025.39
1018.86 1017.87 1016.98 1016.21 1015.51 1014.84 1014.17 1013.48 1012.77 1012.08 1011.45 1010.95 1010.63 1010.50 1010.59 1010.87 1011.30 1011.80 1012.32 1012.82 1013.26 1013.64 1013.99 1014.34 1014.74 1015.22 1015.80 1016.49 1017.24 1018.03 1018.80 1019.49 1020.08 1020.56 1020.93 1021.23 1021.50 1021.81 1022.21 1022.72 1023.37 1024.13 1024.99
1019.64 1018.84 1018.13 1017.49 1016.88 1016.24 1015.54 1014.78 1013.96 1013.13 1012.34 1011.68 1011.18 1010.89 1010.82 1010.96 1011.24 1011.63 1012.05 1012.46 1012.83 1013.16 1013.47 1013.79 1014.17 1014.63 1015.20 1015.87 1016.61 1017.39 1018.15 1018.84 1019.44 1019.93 1020.33 1020.66 1020.98 1021.33 1021.76 1022.31 1022.99 1023.78 1024.66
1020.09 1019.47 1018.94 1018.45 1017.95 1017.38 1016.70 1015.92 1015.04 1014.12 1013.23 1012.43 1011.79 1011.36 1011.13 1011.11 1011.26 1011.51 1011.82 1012.14 1012.44 1012.72 1013.00 1013.29 1013.65 1014.10 1014.64 1015.28 1016.00 1016.74 1017.48 1018.16 1018.76 1019.27 1019.70 1020.08 1020.45 1020.86 1021.35 1021.95 1022.65 1023.46 1024.35
1020.40 1019.93 1019.54 1019.17 1018.77 1018.28 1017.65 1016.89 1016.00 1015.04 1014.08 1013.19 1012.44 1011.87 1011.50 1011.32 1011.32 1011.44 1011.63 1011.86 1012.10 1012.33 1012.58 1012.86 1013.21 1013.63 1014.15 1014.75 1015.41 1016.11 1016.80 1017.45 1018.04 1018.57 1019.04 1019.47 1019.91 1020.39 1020.94 1021.58 1022.32 1023.14 1024.02
1020.76 1020.36 1020.06 1019.77 1019.44 1019.00 1018.43 1017.69 1016.81 1015.85 1014.86 1013.91 1013.07 1012.39 1011.89 1011.58 1011.43 1011.42 1011.49 1011.63 1011.80 1012.00 1012.23 1012.50 1012.83 1013.24 1013.72 1014.28 1014.88 1015.52 1016.15 1016.76 1017.33 1017.86 1018.36 1018.85 1019.36 1019.90 1020.52 1021.21 1021.97 1022.79 1023.66
1021.28 1020.90 1020.61 1020.34 1020.03 1019.61 1019.06 1018.35 1017.49 1016.53 1015.53 1014.55 1013.65 1012.88 1012.27 1011.83 1011.55 1011.41 1011.38 1011.43 1011.54 1011.71 1011.92 1012.18 1012.51 1012.90 1013.35 1013.86 1014.41 1014.98 1015.55 1016.12 1016.66 1017.19 1017.71 1018.24 1018.81 1019.42 1020.09 1020.82 1021.60 1022.42 1023.27
1021.99 1021.56 1021.22 1020.91 1020.56 1020.12 1019.56 1018.86 1018.02 1017.08 1016.08 1015.08 1014.14 1013.30 1012.60 1012.05 1011.65 1011.39 1011.26 1011.23 1011.29 1011.43 1011.63 1011.89 1012.22 1012.60 1013.03 1013.50 1014.00 1014.51 1015.03 1015.54 1016.06 1016.59 1017.13 1017.71 1018.32 1018.99 1019.71 1020.47 1021.26 1022.08 1022.90
1022.81 1022.30 1021.87 1021.46 1021.04 1020.54 1019.94 1019.22 1018.39 1017.45 1016.47 1015.47 1014.50 1013.61 1012.83 1012.19 1011.69 1011.34 1011.12 1011.02 1011.03 1011.14 1011.34 1011.60 1011.93 1012.31 1012.73 1013.17 1013.64 1014.11 1014.59 1015.08 1015.58 1016.12 1016.68 1017.29 1017.95 1018.67 1019.42 1020.21 1021.02 1021.83 1022.64
1023.63 1023.02 1022.46 1021.94 1021.41 1020.83 1020.17 1019.43 1018.58 1017.66 1016.68 1015.68 1014.70 1013.79 1012.96 1012.24 1011.67 1011.23 1010.94 1010.79 1010.76 1010.85 1011.04 1011.31 1011.65 1012.04 1012.45 1012.89 1013.34 1013.80 1014.27 1014.75 1015.27 1015.81 1016.41 1017.06 1017.77 1018.52 1019.31 1020.12 1020.94 1021.75 1022.54
1024.33 1023.60 1022.93 1022.29 1021.64 1020.98 1020.26 1019.47 1018.62 1017.70 1016.73 1015.75 1014.77 1013.84 1012.98 1012.22 1011.59 1011.09 1010.75 1010.55 1010.49 1010.57 1010.75 1011.03 1011.39 1011.79 1012.22 1012.67 1013.13 1013.60 1014.08 1014.59 1015.13 1015.72 1016.36 1017.06 1017.81 1018.60 1019.42 1020.25 1021.08 1021.89 1022.67
1024.82 1024.01 1023.23 1022.48 1021.73 1020.98 1020.20 1019.39 1018.52 1017.60 1016.66 1015.69 1014.73 1013.80 1012.93 1012.15 1011.49 1010.96 1010.58 1010.35 1010.27 1010.34 1010.52 1010.81 1011.18 1011.60 1012.06 1012.54 1013.03 1013.53 1014.05 1014.60 1015.19 1015.83 1016.53 1017.28 1018.08 1018.91 1019.76 1020.61 1021.44 1022.25 1023.02
1025.11 1024.23 1023.36 1022.53 1021.70 1020.89 1020.06 1019.22 1018.34 1017.44 1016.51 1015.57 1014.63 1013.72 1012.86 1012.08 1011.41 1010.87 1010.48 1010.24 1010.15 1010.21 1010.40 1010.70 1011.09 1011.53 1012.01 1012.52 1013.05 1013.60 1014.18 1014.78 1015.44 1016.14 1016.90 1017.71 1018.56 1019.43 1020.30 1021.16 1022.00 1022.80 1023.57
1025.26 1024.32 1023.40 1022.50 1021.62 1020.76 1019.90 1019.04 1018.16 1017.27 1016.36 1015.45 1014.54 1013.66 1012.82 1012.06 1011.41 1010.88 1010.49 1010.25 1010.17 1010.24 1010.43 1010.74 1011.14 1011.60 1012.11 1012.65 1013.22 1013.82 1014.45 1015.12 1015.84 1016.60 1017.42 1018.28 1019.17 1020.07 1020.97 1021.84 1022.67 1023.47 1024.22
1025.36 1024.39 1023.43 1022.49 1021.57 1020.67 1019.79 1018.91 1018.04 1017.15 1016.26 1015.37 1014.50 1013.64 1012.84 1012.12 1011.49 1010.99 1010.63 1010.41 1010.35 1010.43 1010.64 1010.96 1011.37 1011.84 1012.36 1012.93 1013.53 1014.16 1014.84 1015.56 1016.33 1017.15 1018.02 1018.92 1019.84 1020.77 1021.67 1022.54 1023.37 1024.15 1024.89
1025.52 1024.53 1023.54 1022.57 1021.62 1020.70 1019.79 1018.90 1018.01 1017.12 1016.24 1015.36 1014.51 1013.69 1012.92 1012.24 1011.65 1011.20 1010.88 1010.70 1010.67 1010.77 1011.00 1011.34 1011.75 1012.23 1012.77 1013.34 1013.96 1014.61 1015.31 1016.06 1016.86 1017.72 1018.61 1019.54 1020.48 1021.41 1022.32 1023.18 1024.00 1024.77 1025.49
1025.82 1024.81 1023.80 1022.81 1021.83 1020.87 1019.93 1019.00 1018.09 1017.18 1016.28 1015.41 1014.56 1013.76 1013.02 1012.38 1011.85 1011.44 1011.18 1011.06 1011.08 1011.22 1011.48 1011.83 1012.26 1012.75 1013.29 1013.86 1014.47 1015.13 1015.83 1016.58 1017.39 1018.25 1019.15 1020.08 1021.02 1021.94 1022.84 1023.69 1024.49 1025.24 1025.95
Thickness
5567 5572 5577 5583 5588 5592 5597 5601 5603 5607 5609 5613 5616 5618 5621 5622 5624 5626 5628 5630 5632 5634 5635 5637 5637 5637 5639 5639 5640 5640 5639 5638 5638 5638 5637 5636 5637 5637 5637 5637 5637 5636 5635
5553 5558 5564 5569 5575 5580 5585 5589 5593 5596 5600 5603 5607 5610 5612 5614 5616 5618 5620 5622 5624 5626 5628 5629 5630 5631 5632 5633 5633 5633 5633 5632 5632 5633 5633 5632 5631 5630 5629 5630 5630 5629 5629
5539 5545 5551 5557 5563 5568 5573 5578 5581 5586 5590 5593 5596 5599 5602 5604 5606 5609 5611 5613 5616 5618 5620 5622 5623 5624 5625 5626 5626 5627 5628 5627 5625 5627 5629 5629 5628 5625 5623 5622 5623 5622 5622
5523 5530 5537 5544 5550 5556 5561 5566 5571 5575 5579 5582 5587 5592 5595 5598 5600 5602 5604 5606 5608 5610 5612 5614 5615 5616 5618 5619 5619 5620 5622 5622 5621 5620 5621 5623 5625 5622 5619 5617 5616 5615 5615
5507 5514 5522 5530 5537 5543 5549 5555 5559 5564 5568 5573 5578 5582 5585 5589 5592 5593 5596 5599 5601 5602 5604 5606 5607 5609 5610 5611 5612 5613 5614 5616 5616 5615 5614 5614 5615 5617 5617 5614 5611 5609 5608
5490 5499 5506 5514 5522 5529 5536 5542 5548 5553 5558 5563 5567 5572 5576 5579 5582 5585 5588 5590 5593 5595 5597 5598 5600 5601 5603 5603 5604 5605 5606 5608 5609 5609 5610 5609 5610 5610 5610 5609 5606 5605 5603
5474 5483 5491 5498 5507 5515 5522 5529 5536 5541 5546 5552 5557 5562 5566 5570 5573 5576 5579 5581 5584 5587 5589 5590 5592 5594 5594 5595 5596 5597 5598 5600 5601 5602 5603 5603 5604 5603 5603 5601 5599 5597 5596
5458 5467 5475 5484 5493 5501 5509 5516 5523 5528 5534 5540 5546 5551 5555 5559 5564 5567 5570 5573 5576 5578 5580 5582 5584 5585 5586 5587 5589 5590 5591 5592 5593 5594 5594 5595 5595 5595 5595 5595 5593 5591 5590
5442 5451 5460 5469 5479 5488 5495 5503 5510 5517 5522 5528 5533 5539 5544 5549 5553 5557 5560 5563 5566 5569 5571 5573 5575 5577 5578 5579 5581 5582 5583 5584 5585 5586 5587 5587 5588 5587 5587 5587 5587 5586 5586
5427 5437 5447 5455 5464 5473 5482 5490 5497 5504 5510 5516 5522 5527 5533 5538 5542 5546 5550 5553 5557 5559 5562 5564 5566 5568 5569 5571 5573 5574 5575 5576 5577 5578 5579 5579 5579 5579 5579 5578 5579 5579 5580
5412 5422 5432 5442 5450 5459 5468 5476 5484 5491 5497 5503 5510 5515 5521 5527 5531 5535 5540 5543 5546 5549 5552 5555 5557 5560 5561 5563 5565 5566 5567 5568 5569 5569 5570 5571 5571 5571 5571 5570 5570 5570 5570
5398 5408 5417 5427 5436 5445 5453 5461 5471 5478 5485 5491 5497 5504 5510 5515 5520 5524 5529 5533 5536 5540 5543 5546 5548 5551 5552 5554 5556 5557 5558 5559 5561 5561 5561 5562 5562 5562 5562 5561 5561 5561 5561
5386 5395 5405 5413 5422 5431 5440 5448 5456 5464 5471 5478 5485 5492 5498 5503 5509 5514 5518 5522 5526 5530 5533 5536 5539 5541 5543 5545 5546 5548 5549 5551 5552 5553 5553 5554 5554 5553 5553 5553 5553 5552 5551
5374 5383 5392 5400 5408 5417 5426 5435 5443 5451 5458 5465 5473 5480 5487 5492 5498 5502 5507 5511 5515 5519 5523 5526 5529 5532 5534 5536 5538 5539 5540 5541 5542 5543 5544 5545 5545 5545 5544 5543 5543 5543 5541
5361 5370 5378 5387 5396 5405 5413 5422 5431 5438 5445 5453 5460 5467 5474 5480 5486 5491 5496 5500 5504 5508 5512 5516 5519 5521 5524 5527 5529 5529 5531 5532 5532 5533 5533 5534 5534 5534 5534 5534 5534 5533 5532
5348 5356 5365 5374 5383 5391 5400 5409 5418 5426 5433 5440 5447 5454 5461 5468 5474 5479 5484 5488 5493 5496 5500 5504 5508 5511 5514 5516 5517 5519 5520 5521 5522 5522 5522 5522 5522 5522 5521 5521 5522 5522 5522
5337 5345 5353 5362 5370 5378 5387 5396 5405 5414 5421 5428 5435 5441 5448 5455 5462 5467 5472 5477 5481 5485 5489 5493 5497 5500 5503 5504 5505 5507 5509 5510 5511 5511 5511 5511 5511 5510 5510 5509 5508 5508 5508
5326 5334 5343 5351 5359 5367 5375 5384 5393 5401 5409 5416 5423 5429 5436 5443 5449 5455 5461 5466 5470 5474 5478 5481 5485 5489 5491 5493 5494 5495 5496 5498 5499 5499 5500 5500 5500 5499 5499 5498 5497 5496 5496
5315 5324 5332 5340 5349 5357 5364 5373 5382 5389 5397 5403 5410 5417 5424 5430 5436 5443 5448 5453 5457 5461 5465 5469 5473 5477 5479 5480 5482 5482 5484 5486 5486 5487 5488 5489 5489 5488 5487 5487 5486 5484 5483
5307 5316 5324 5331 5339 5346 5353 5362 5370 5378 5384 5391 5397 5404 5411 5417 5423 5429 5435 5439 5444 5448 5452 5456 5459 5463 5466 5467 5469 5470 5472 5474 5474 5474 5475 5475 5476 5475 5474 5474 5474 5473 5471
5300 5308 5316 5323 5329 5335 5343 5351 5359 5365 5371 5378 5385 5392 5398 5404 5410 5416 5421 5426 5431 5435 5439 5443 5446 5449 5452 5454 5456 5457 5460 5461 5461 5462 5462 5463 5462 5462 5461 5461 5461 5461 5458
5293 5301 5308 5314 5320 5326 5332 5339 5346 5353 5359 5366 5373 5379 5385 5390 5396 5402 5407 5412 5417 5421 5425 5428 5431 5434 5437 5440 5442 5444 5445 5447 5448 5449 5449 5449 5448 5448 5447 5447 5447 5445 5443
5284 5292 5298 5304 5310 5316 5322 5329 5335 5341 5348 5355 5361 5367 5372 5377 5383 5388 5394 5398 5403 5408 5412 5415 5418 5420 5423 5425 5428 5429 5431 5432 5433 5434 5434 5434 5433 5433 5432 5432 5431 5430 5430
5277 5283 5288 5294 5301 5306 5312 5318 5324 5331 5337 5344 5349 5355 5360 5366 5371 5376 5381 5385 5390 5394 5398 5402 5405 5407 5409 5412 5414 5415 5416 5417 5418 5418 5418 5418 5418 5417 5417 5417 5416 5416 5417
5269 5274 5280 5285 5291 5296 5302 5308 5314 5320 5327 5333 5339 5344 5349 5354 5358 5363 5367 5372 5377 5382 5386 5390 5393 5395 5398 5399 5401 5403 5403 5404 5405 5404 5404 5404 5404 5404 5403 5403 5402 5402 5402
5261 5266 5271 5277 5282 5287 5293 5299 5304 5310 5316 5323 5328 5333 5337 5342 5347 5351 5355 5359 5363 5367 5371 5375 5378 5381 5384 5385 5387 5388 5389 5390 5391 5391 5391 5391 5391 5391 5390 5390 5389 5389 5388